Location: Unspecified
(0.0000°N, 0.0000°E)
Time: 10:33:57
(UTC+00:00)

TUBSAT-30 - Visible Passes

Search period start: 18 September 2024 00:00
Search period end: 28 September 2024 00:00
Orbit: 565 x 586 km, 62.0° (Epoch: 17 September)

Date Brightness Start Highest point End Pass type
(mag) Time Alt. Az. Time Alt. Az. Time Alt. Az.
18 Sep ? 19:36:01 10° W 19:37:34 12° WNW 19:39:07 10° NW visible
22 Sep ? 04:28:42 10° NE 04:30:43 13° ENE 04:32:45 10° E visible
23 Sep ? 04:30:23 10° N 04:33:52 24° ENE 04:37:22 10° ESE visible
24 Sep ? 04:32:51 10° N 04:36:58 46° ENE 04:41:06 10° SE visible
25 Sep ? 04:36:40 16° NNW 04:40:03 89° SW 04:44:21 10° SSE visible
26 Sep ? 04:41:44 33° WNW 04:43:05 45° WSW 04:47:11 10° S visible
27 Sep ? 04:46:28 24° WSW 04:46:28 24° WSW 04:49:35 10° S visible
